Regional Weather Roundup
Issued by NWS Sioux Falls, SD

Home | Current Version | Previous Version | Graphics & Text | Print | Product List | Glossary On
Versions: 1 2 3 4 5 6 7 8 9 10 11 12 13 14 15 16 17 18 19 20 21 22 23 24 25 26 27 28 29 30 31 32 33 34 35 36 37 38 39 40 41 42 43 44 45 46 47 48 49 50
000
ASUS43 KFSD 241802
RWRFSD

WEATHER ROUNDUP FOR SE SOUTH DAKOTA/SW MINNESOTA/NW IOWA
NATIONAL WEATHER SERVICE SIOUX FALLS SD
100 PM CDT SUN MAY 24 2015

NOTE: "FAIR" INDICATES FEW OR NO CLOUDS BELOW 12,000 FEET WITH NO
SIGNIFICANT WEATHER AND OR OBSTRUCTIONS TO VISIBILITY.


SDZ038>040-050-052>070-241900-
SOUTHEAST SOUTH DAKOTA

CITY           SKY/WX    TMP DP  RH WIND       PRES   REMARKS
BROOKINGS      CLOUDY    61  57  88 NE8       29.93S
CHAMBERLAIN    CLOUDY    59  57  92 E9        29.88F
6HR MIN TEMP:  55; 6HR MAX TEMP:  60;

HURON          CLOUDY    62  59  90 E12       29.90F
6HR MIN TEMP:  57; 6HR MAX TEMP:  62; 6HR PCP:  0.05;

MADISON        MOCLDY    59  59 100 E14       29.91F FOG
MITCHELL       LGT RAIN  62  60  93 E9        29.89F
6HR MIN TEMP:  58; 6HR MAX TEMP:  62; 6HR PCP:  0.30;

SIOUX FALLS    CLOUDY    61  58  90 E10       29.88F
6HR MIN TEMP:  59; 6HR MAX TEMP:  61; 6HR PCP:  0.04;

WINNER         CLOUDY    60  57  89 E10       29.88F
YANKTON        CLOUDY    61  59  94 E12       29.85F
$$

MNZ071-072-080-081-089-090-097-098-241900-
SOUTHWEST MINNESOTA

CITY           SKY/WX    TMP DP  RH WIND       PRES   REMARKS
FAIRMONT       CLOUDY    59  54  82 E13       29.91F
JACKSON        LGT RAIN  59  59 100 E18       29.91S
LUVERNE        CLOUDY    63  59  88 E15       29.89F
MARSHALL       CLOUDY    59  54  82 E12       29.93S
6HR MIN TEMP:  57; 6HR MAX TEMP:  61; 6HR PCP:  0.02;

MONTEVIDEO     LGT RAIN  63  59  88 SE14      29.96F
REDWOOD FALLS  CLOUDY    60  58  92 E9        29.94F FOG
TRACY          LGT RAIN  60  59  96 E10       29.93F
WINDOM         LGT RAIN  61  57  88 E14       29.91F
WORTHINGTON    CLOUDY    61  55  82 E17       29.90F
$$

IAZ001>003-012>014-020>022-031-032-NEZ013-014-SDZ071-241900-
NORTHWEST IOWA

CITY           SKY/WX    TMP DP  RH WIND       PRES   REMARKS
DENISON        CLOUDY    63  63 100 S7        29.82F
ESTHERVILLE    LGT RAIN  58  58 100 E14       29.89F FOG
SIOUX CITY     CLOUDY    63  58  83 E8        29.83F
6HR MIN TEMP:  60; 6HR MAX TEMP:  63; 6HR PCP:  0.10;

SPENCER        LGT RAIN  61  59  93 E16G22    29.87F FOG
6HR MIN TEMP:  59; 6HR MAX TEMP:  61; 6HR PCP:  0.14;

$$

ABBREVIATIONS USED IN REMARKS
   TC - TEMPERATURE IN CELSIUS
  WCI - WIND CHILL INDEX
   HX - HEAT INDEX
  VSB - VISIBILITY




USA.gov is the U.S. government's official web portal to all federal, state and local government web resources and services.